Regional Weather Roundup
Issued by NWS Cleveland, OH

Home | Current Version | Previous Version | Graphics & Text | Print | Product List | Glossary On
Versions: 1 2 3 4 5 6 7 8 9 10 11 12 13 14 15 16 17 18 19 20 21 22 23 24 25 26 27 28 29 30 31 32 33 34 35 36 37 38 39 40 41 42 43 44 45 46 47 48 49 50
000
ASUS41 KCLE 232100
RWRCLE
OHIO REGIONAL WEATHER ROUNDUP
NATIONAL WEATHER SERVICE WILMINGTON, OH
500 PM EDT THU OCT 23 2014

NOTE: "FAIR" INDICATES FEW OR NO CLOUDS BELOW 12,000 FEET WITH NO
SIGNIFICANT WEATHER AND/OR OBSTRUCTIONS TO VISIBILITY.

OHZ001>008-015>018-024>027-034-035-043-044-232200-
   NORTHWEST OHIO

CITY           SKY/WX    TMP DP  RH WIND       PRES   REMARKS
DEFIANCE       SUNNY     58  38  47 SW5       30.14F
FINDLAY        SUNNY     57  40  52 VRB3      30.14F
TOLEDO EXPRESS SUNNY     58  38  47 W6        30.14F
TOLEDO METCALF SUNNY     57  40  52 NW5       30.15F
LIMA           SUNNY     58  40  51 W5        30.14F
$$

OHZ009>014-019>023-028>033-038-089-232200-
   NORTHEAST OHIO

CITY           SKY/WX    TMP DP  RH WIND       PRES   REMARKS
CLE-HOPKINS    MOSUNNY   55  42  61 NW5       30.16F
CLE-LAKEFRONT  MOSUNNY   54  45  71 W8        30.14F
CUY CO. ARPT   PTSUNNY   55  46  71 NW14      30.14F
LORAIN-ELYRIA  SUNNY     54  41  61 N8        30.15F
ASHTABULA      MOSUNNY   54  44  69 NW7       30.12S
AKRON-CANTON   MOSUNNY   57  44  62 N12       30.11F
WOOSTER        NOT AVBL
MANSFIELD      SUNNY     57  41  55 NW5       30.13F
YOUNGSTOWN     MOSUNNY   57  43  59 N15       30.09S
$$

OHZ042-051>053-060>062-070>072-077>081-232200-
  SOUTHWEST OHIO

CITY           SKY/WX    TMP DP  RH WIND       PRES   REMARKS
CINC-COVINGTON PTSUNNY   59  38  45 CALM      30.13F
CINC-LUNKEN    SUNNY     60  42  51 CALM      30.15F
HAMILTON       SUNNY     60  39  45 CALM      30.15F
DAYTON         NOT AVBL
WRIGHT-PAT AFB SUNNY     59  42  52 SW3       30.14F
DAYTON GENERAL SUNNY     58  40  51 N3        30.14F
WILMINGTON     SUNNY     59  39  47 W5        30.13F
$$

OHZ036-037-039>041-045>050-054>059-063>069-073>076-082>088-232200-
  CENTRAL AND SOUTHEAST OHIO

CITY           SKY/WX    TMP DP  RH WIND       PRES   REMARKS
COLUMBUS       MOSUNNY   58  41  53 NW6       30.13F
OSU AIRPORT    SUNNY     59  41  51 N6        30.14S
BOLTON FIELD   SUNNY     57  43  58 SW5       30.14F
RICKENBACK AFB NOT AVBL
NEWARK         SUNNY     60  41  49 NW8       30.12S
MARION         SUNNY     56  41  57 NW5       30.15S
LANCASTER      SUNNY     59  41  51 N5        30.13F
ZANESVILLE     SUNNY     60  41  49 VRB3      30.11F
NEW PHILLY     MOSUNNY   59  44  57 W8        30.11F
$$



USA.gov is the U.S. government's official web portal to all federal, state and local government web resources and services.